Previsão horária em Abinsk

Hoje, 9 Maio, Domingo

Tempo Temperatura Precipitação Vento Pressão Humidade
00:00 +14°C° 0.1 mm 3 m/s 755 mmHg 82%
01:00 +14°C° 0.5 mm 3 m/s 755 mmHg 86%
02:00 +14°C° 0.5 mm 3 m/s 755 mmHg 91%
03:00 +13°C° 0.5 mm 4 m/s 755 mmHg 96%
04:00 +12°C° 0.8 mm 4 m/s 755 mmHg 95%
05:00 +11°C° 0.8 mm 4 m/s 756 mmHg 95%
06:00 +9°C° 0.8 mm 5 m/s 757 mmHg 95%
07:00 +9°C° 1.4 mm 5 m/s 757 mmHg 93%
08:00 +8°C° 1.4 mm 5 m/s 758 mmHg 92%
09:00 +8°C° 1.4 mm 5 m/s 759 mmHg 91%
10:00 +8°C° 0.7 mm 5 m/s 759 mmHg 89%
11:00 +8°C° 0.7 mm 6 m/s 760 mmHg 88%
12:00 +9°C° 0.7 mm 6 m/s 760 mmHg 86%
13:00 +9°C° 0.2 mm 6 m/s 761 mmHg 80%
14:00 +10°C° 0.2 mm 6 m/s 762 mmHg 74%
15:00 +10°C° 0.2 mm 5 m/s 762 mmHg 68%
16:00 +12°C° 0 mm 5 m/s 763 mmHg 65%
17:00 +12°C° 0 mm 5 m/s 763 mmHg 62%
18:00 +12°C° 0 mm 4 m/s 763 mmHg 59%
19:00 +11°C° 0 mm 4 m/s 764 mmHg 63%
20:00 +9°C° 0 mm 3 m/s 764 mmHg 67%
21:00 +8°C° 0 mm 2 m/s 765 mmHg 70%
22:00 +8°C° 0 mm 2 m/s 765 mmHg 69%
23:00 +7°C° 0 mm 2 m/s 765 mmHg 68%

Amanhã, 10 Maio, Segunda-feira

Tempo Temperatura Precipitação Vento Pressão Humidade
00:00 +7°C° 0 mm 2 m/s 765 mmHg 67%
01:00 +7°C° 0.1 mm 2 m/s 765 mmHg 70%
02:00 +7°C° 0.1 mm 2 m/s 765 mmHg 72%
03:00 +7°C° 0.1 mm 2 m/s 765 mmHg 74%
04:00 +7°C° 0.1 mm 2 m/s 765 mmHg 76%
05:00 +7°C° 0.1 mm 2 m/s 765 mmHg 79%
06:00 +7°C° 0.1 mm 2 m/s 765 mmHg 81%
07:00 +9°C° 0.1 mm 3 m/s 765 mmHg 72%
08:00 +10°C° 0.1 mm 4 m/s 765 mmHg 64%
09:00 +12°C° 0.1 mm 4 m/s 765 mmHg 55%
10:00 +12°C° 0.1 mm 5 m/s 764 mmHg 52%
11:00 +13°C° 0.1 mm 5 m/s 764 mmHg 50%
12:00 +13°C° 0.1 mm 5 m/s 764 mmHg 47%
13:00 +13°C° 0 mm 5 m/s 764 mmHg 48%
14:00 +13°C° 0 mm 6 m/s 764 mmHg 49%
15:00 +13°C° 0 mm 6 m/s 764 mmHg 50%
16:00 +13°C° 0 mm 5 m/s 764 mmHg 54%
17:00 +12°C° 0 mm 4 m/s 763 mmHg 58%
18:00 +11°C° 0 mm 4 m/s 763 mmHg 63%
19:00 +11°C° 0 mm 3 m/s 763 mmHg 63%
20:00 +10°C° 0 mm 3 m/s 763 mmHg 64%
21:00 +10°C° 0 mm 3 m/s 763 mmHg 64%
22:00 +10°C° 0 mm 4 m/s 762 mmHg 64%
23:00 +9°C° 0 mm 5 m/s 761 mmHg 63%

Depois de amanhã, 11 Maio, Terça-feira

Tempo Temperatura Precipitação Vento Pressão Humidade
00:00 +9°C° 0 mm 6 m/s 761 mmHg 63%
01:00 +10°C° 0.1 mm 6 m/s 760 mmHg 65%
02:00 +10°C° 0.1 mm 6 m/s 760 mmHg 68%
03:00 +10°C° 0.1 mm 7 m/s 759 mmHg 70%
04:00 +9°C° 0.4 mm 7 m/s 759 mmHg 74%
05:00 +9°C° 0.4 mm 7 m/s 759 mmHg 77%
06:00 +9°C° 0.4 mm 7 m/s 758 mmHg 81%
07:00 +9°C° 1 mm 7 m/s 758 mmHg 83%
08:00 +8°C° 1 mm 7 m/s 758 mmHg 86%
09:00 +8°C° 1 mm 7 m/s 758 mmHg 88%
10:00 +8°C° 0.7 mm 7 m/s 758 mmHg 88%
11:00 +8°C° 0.7 mm 7 m/s 759 mmHg 88%
12:00 +7°C° 0.7 mm 8 m/s 759 mmHg 87%
13:00 +8°C° 0.2 mm 7 m/s 759 mmHg 86%
14:00 +9°C° 0.2 mm 7 m/s 759 mmHg 84%
15:00 +9°C° 0.2 mm 6 m/s 759 mmHg 82%
16:00 +9°C° 0.1 mm 6 m/s 759 mmHg 82%
17:00 +9°C° 0.1 mm 6 m/s 759 mmHg 81%
18:00 +10°C° 0.1 mm 6 m/s 759 mmHg 80%
19:00 +10°C° 0.2 mm 5 m/s 759 mmHg 80%
20:00 +10°C° 0.2 mm 5 m/s 759 mmHg 80%
21:00 +9°C° 0.2 mm 5 m/s 759 mmHg 79%
22:00 +10°C° 0.1 mm 4 m/s 759 mmHg 79%
23:00 +10°C° 0.1 mm 4 m/s 759 mmHg 78%

12 Maio, Quarta-feira

Tempo Temperatura Precipitação Vento Pressão Humidade
00:00 +10°C° 0.1 mm 4 m/s 759 mmHg 77%
01:00 +10°C° 0 mm 3 m/s 759 mmHg 77%
02:00 +10°C° 0 mm 3 m/s 759 mmHg 78%
03:00 +10°C° 0 mm 3 m/s 759 mmHg 78%
04:00 +10°C° 0 mm 3 m/s 759 mmHg 80%
05:00 +10°C° 0 mm 2 m/s 759 mmHg 81%
06:00 +9°C° 0 mm 2 m/s 759 mmHg 83%
07:00 +12°C° 0 mm 2 m/s 759 mmHg 77%
08:00 +13°C° 0 mm 2 m/s 759 mmHg 71%
09:00 +14°C° 0 mm 2 m/s 759 mmHg 65%
10:00 +16°C° 0 mm 2 m/s 759 mmHg 58%
11:00 +17°C° 0 mm 2 m/s 758 mmHg 51%
12:00 +19°C° 0 mm 2 m/s 758 mmHg 43%
13:00 +19°C° 0 mm 2 m/s 758 mmHg 42%
14:00 +20°C° 0 mm 2 m/s 758 mmHg 42%
15:00 +21°C° 0 mm 2 m/s 758 mmHg 41%
16:00 +20°C° 0 mm 2 m/s 758 mmHg 48%
17:00 +20°C° 0 mm 2 m/s 757 mmHg 56%
18:00 +19°C° 0 mm 2 m/s 757 mmHg 64%
19:00 +17°C° 0 mm 2 m/s 757 mmHg 72%
20:00 +15°C° 0 mm 1 m/s 757 mmHg 80%
21:00 +13°C° 0 mm 1 m/s 757 mmHg 88%
22:00 +13°C° 0 mm 1 m/s 757 mmHg 88%
23:00 +13°C° 0 mm 1 m/s 757 mmHg 89%

13 Maio, Quinta-feira

Tempo Temperatura Precipitação Vento Pressão Humidade
00:00 +12°C° 0 mm 1 m/s 756 mmHg 90%
01:00 +12°C° 0 mm 1 m/s 756 mmHg 90%
02:00 +12°C° 0 mm 1 m/s 756 mmHg 89%
03:00 +12°C° 0 mm 1 m/s 756 mmHg 88%
04:00 +12°C° 0 mm 1 m/s 756 mmHg 85%
05:00 +13°C° 0 mm 1 m/s 756 mmHg 83%
06:00 +13°C° 0 mm 1 m/s 756 mmHg 80%
07:00 +16°C° 0 mm 2 m/s 755 mmHg 72%
08:00 +18°C° 0 mm 2 m/s 755 mmHg 64%
09:00 +21°C° 0 mm 2 m/s 755 mmHg 57%
10:00 +24°C° 0 mm 2 m/s 755 mmHg 53%
11:00 +25°C° 0 mm 3 m/s 755 mmHg 50%
12:00 +27°C° 0 mm 3 m/s 755 mmHg 47%
13:00 +27°C° 0 mm 3 m/s 755 mmHg 48%
14:00 +27°C° 0 mm 3 m/s 755 mmHg 49%
15:00 +28°C° 0 mm 3 m/s 755 mmHg 50%
16:00 +27°C° 0 mm 3 m/s 755 mmHg 57%
17:00 +26°C° 0 mm 3 m/s 755 mmHg 64%
18:00 +26°C° 0 mm 2 m/s 755 mmHg 70%
19:00 +24°C° 0 mm 2 m/s 755 mmHg 75%
20:00 +21°C° 0 mm 2 m/s 755 mmHg 79%
21:00 +20°C° 0 mm 1 m/s 755 mmHg 83%
22:00 +20°C° 0 mm 1 m/s 755 mmHg 77%
23:00 +20°C° 0 mm 1 m/s 755 mmHg 72%

14 Maio, Sexta-feira

Tempo Temperatura Precipitação Vento Pressão Humidade
00:00 +18°C° 0 mm 2 m/s 755 mmHg 67%
01:00 +19°C° 0 mm 1 m/s 755 mmHg 64%
02:00 +18°C° 0 mm 1 m/s 755 mmHg 60%
03:00 +18°C° 0 mm 1 m/s 755 mmHg 57%
04:00 +18°C° 0 mm 1 m/s 755 mmHg 58%
05:00 +18°C° 0 mm 1 m/s 755 mmHg 60%
06:00 +18°C° 0 mm 1 m/s 755 mmHg 61%
07:00 +21°C° 0 mm 1 m/s 755 mmHg 57%
08:00 +23°C° 0 mm 1 m/s 755 mmHg 53%
09:00 +26°C° 0 mm 1 m/s 755 mmHg 49%
10:00 +27°C° 0 mm 1 m/s 755 mmHg 46%
11:00 +29°C° 0 mm 2 m/s 755 mmHg 44%
12:00 +31°C° 0 mm 2 m/s 755 mmHg 41%
13:00 +31°C° 0 mm 2 m/s 755 mmHg 41%
14:00 +31°C° 0 mm 2 m/s 755 mmHg 41%
15:00 +31°C° 0 mm 2 m/s 755 mmHg 42%
16:00 +31°C° 0 mm 2 m/s 755 mmHg 48%
17:00 +30°C° 0 mm 1 m/s 755 mmHg 55%
18:00 +29°C° 0 mm 1 m/s 755 mmHg 62%
19:00 +26°C° 0 mm 1 m/s 755 mmHg 66%
20:00 +24°C° 0 mm 1 m/s 755 mmHg 70%
21:00 +21°C° 0 mm 1 m/s 755 mmHg 73%
22:00 +21°C° 0 mm 1 m/s 755 mmHg 76%
23:00 +20°C° 0 mm 1 m/s 755 mmHg 78%
Mostrar mais

Necessitamos do seu Consentimento

A Meteoprog e os seus Fornecedores de Serviços podem armazenar e aceder a dados pessoais como cookies, identificadores do dispositivo ou outras tecnologias semelhantes existentes no seu dispositivo e processar estes dados para personalizar conteúdos e anúncios, assim como funcionalidades nas redes sociais e análise de tráfego.

  • Armazenar e/ou aceder a informações no seu dispositivo

    Os cookies, identificadores do dispositivo ou outras informações podem ser armazenados ou acedidos no seu dispositivo, para os fins acima indicados.

  • Anúncios e conteúdos personalizados, medição de anúncios e conteúdos, dados sobre o público-alvo e desenvolvimento de produtos

    Os anúncios e os conteúdos podem ser personalizados com base num perfil. Podem ser adicionados dados adicionais para uma maior personalização dos anúncios e dos conteúdos. A eficácia dos anúncios e dos conteúdos pode ser medida. Podem ser obtidas informações sobre o público que visualizou os anúncios e os conteúdos. Estes dados podem ser usados para desenvolver ou melhorar sistemas, softwares ou a experiência do utilizador.

Ao clicar em "Eu concordo”, permitirá o uso de cookies, identificadores do dispositivo e web beacons mencionados ou outras tecnologias semelhantes. As configurações do navegador do seu dispositivo podem ser alteradas.

Para certos fins, podem ser invocados interesses legítimos ao invés de consentimento. Pode ler mais informação sobre este assunto na nossa Política de Privacidade e Cookies.